Weather History for Torrington, WY

Change the Weather History Date:

Friday, October 4, 2013

  Actual Average Record
Temperature  
Mean Temperature 35 °F 53 °F  
Max Temperature 38 °F 68 °F 86 °F (2011)
Min Temperature 31 °F 37 °F 26 °F (1999)
Degree Days  
Heating Degree Days 30 12  
Month to date heating degree days 66 47  
Since 1 July heating degree days 171 241  
Cooling Degree Days 0 0  
Month to date cooling degree days 0 0  
Year to date cooling degree days 893 678  
Moisture  
Dew Point 32 °F    
Average Humidity 89    
Maximum Humidity 100    
Minimum Humidity 78    
Precipitation  
Precipitation 0.64 in 0.03 in 0.64 in (2013)
Month to date precipitation 0.99 0.15  
Year to date precipitation 10.17 12.48  
Sea Level Pressure  
Sea Level Pressure 30.02 in    
Wind  
Wind Speed 23 mph (NNW)    
Max Wind Speed 37 mph    
Max Gust Speed 49 mph    
Visibility 4 miles    
Events Fog , Rain , Snow , Thunderstorm    
T = Trace of Precipitation, MM = Missing Value Source: NWS Daily Summary

Daily Weather History Graph

Daily Weather History Graph

Search for Another Location

Airport:

Trip Planner

Search our weather history database for the weather conditions in past years. The results will help you decide how hot, cold, wet, or windy it might be!

Date:

Astronomy

Oct. 04, 2013 Rise Set
Actual Time 6:57 AM MDT 6:32 PM MDT
Civil Twilight 6:29 AM MDT 7:00 PM MDT
Nautical Twilight 5:56 AM MDT 7:32 PM MDT
Astronomical Twilight 5:24 AM MDT 8:05 PM MDT
Moon 6:35 AM MDT (10/4) 6:15 PM MDT (10/4)
Length of Visible Light 12h 31m
Length of Day
11h 35m
Waning Crescent, 0% of the Moon is Illuminated
Oct 4
Waning Crescent
Oct 4
New
Oct 11
First Quarter
Oct 18
Full
Oct 26
Last Quarter

Hourly Weather History & Observations

Time (MDT) Temp. Windchill Dew Point Humidity Pressure Visibility Wind Dir Wind Speed Gust Speed Precip Events Conditions
12:11 AM 41.0 °F 32.8 °F 39.2 °F 93% 29.88 in 5.0 mi NNE 16.1 mph - 0.06 in Rain Rain
12:43 AM 39.2 °F 29.3 °F 37.4 °F 93% 29.87 in 10.0 mi NNE 20.7 mph 28.8 mph 0.10 in Rain Light Rain
12:53 AM 39.9 °F 31.8 °F 37.9 °F 93% 29.88 in 10.0 mi North 15.0 mph 24.2 mph 0.10 in Rain Light Rain
1:00 AM 37.4 °F 29.8 °F 35.6 °F 93% 29.91 in 10.0 mi North 11.5 mph 21.9 mph 0.01 in Rain , Thunderstorm Light Thunderstorms and Rain
1:09 AM 35.6 °F 24.8 °F 33.8 °F 93% 29.89 in 5.0 mi NNE 19.6 mph 25.3 mph 0.07 in Rain Heavy Rain
1:28 AM 35.6 °F 26.6 °F 33.8 °F 93% 29.90 in 6.0 mi NNE 13.8 mph 26.5 mph 0.11 in Rain Light Rain
1:51 AM 35.6 °F 23.7 °F 33.8 °F 93% 29.88 in 9.0 mi North 24.2 mph 29.9 mph 0.13 in Rain Light Rain
1:53 AM 35.1 °F 23.5 °F 33.1 °F 92% 29.87 in 10.0 mi North 21.9 mph 29.9 mph 0.13 in Rain Light Rain
2:30 AM 35.6 °F 26.6 °F 33.8 °F 93% 29.91 in 10.0 mi North 13.8 mph 20.7 mph 0.00 in   Overcast
2:53 AM 35.1 °F 27.9 °F 32.0 °F 89% 29.91 in 6.0 mi NNW 9.2 mph - 0.02 in Rain Light Rain
3:53 AM 34.0 °F 26.6 °F 32.0 °F 92% 29.94 in 6.0 mi North 9.2 mph - 0.07 in Rain Light Rain
4:41 AM 33.8 °F 21.3 °F 30.2 °F 87% 29.91 in 10.0 mi NNE 24.2 mph 29.9 mph 0.07 in Rain Light Rain
4:53 AM 34.0 °F 21.3 °F 30.9 °F 89% 29.93 in 10.0 mi NNE 25.3 mph 40.3 mph 0.07 in   Overcast
5:35 AM 33.8 °F 24.3 °F 32.0 °F 93% 29.93 in 6.0 mi NNW 13.8 mph 25.3 mph 0.04 in Rain Rain
5:53 AM 33.1 °F 24.4 °F 32.0 °F 96% 29.97 in 5.0 mi WNW 11.5 mph - 0.05 in Snow Light Snow
6:11 AM 32.0 °F 22.5 °F 32.0 °F 100% 29.96 in 4.0 mi WNW 12.7 mph - 0.02 in Snow Light Snow
6:32 AM 33.8 °F 25.3 °F 32.0 °F 93% 29.96 in 2.0 mi NW 11.5 mph - 0.03 in Snow Light Snow
6:41 AM 32.0 °F 23.6 °F 32.0 °F 100% 29.97 in 1.8 mi WNW 10.4 mph - 0.04 in Snow Light Snow
6:53 AM 32.0 °F 20.8 °F 32.0 °F 100% 29.99 in 1.2 mi NW 17.3 mph - 0.05 in Snow Light Snow
7:24 AM 33.8 °F 23.2 °F 32.0 °F 93% 29.95 in 0.8 mi NNW 17.3 mph 23.0 mph 0.02 in Snow Light Snow
7:34 AM 33.8 °F 23.5 °F 32.0 °F 93% 29.96 in 1.0 mi NW 16.1 mph 26.5 mph 0.03 in Snow Light Snow
7:51 AM 33.8 °F 23.2 °F 32.0 °F 93% 29.96 in 0.8 mi NW 17.3 mph - 0.05 in Snow Light Snow
7:53 AM 33.1 °F 22.6 °F 32.0 °F 96% 29.99 in 0.8 mi NW 16.1 mph 24.2 mph 0.05 in Snow Light Snow
8:06 AM 33.8 °F 22.8 °F 32.0 °F 93% 29.98 in 1.0 mi NW 18.4 mph - 0.01 in Snow Light Snow
8:25 AM 33.8 °F 22.2 °F 32.0 °F 93% 29.97 in 0.8 mi NW 20.7 mph 27.6 mph 0.02 in Snow Light Snow
8:53 AM 32.0 °F 20.8 °F 32.0 °F 100% 30.02 in 0.8 mi NW 17.3 mph 26.5 mph 0.03 in Snow Light Snow
9:05 AM 33.8 °F 22.8 °F 32.0 °F 93% 29.99 in 0.8 mi NW 18.4 mph 25.3 mph 0.01 in Snow Light Snow
9:31 AM 33.8 °F 22.2 °F 32.0 °F 93% 30.00 in 0.8 mi NW 20.7 mph 28.8 mph 0.02 in Snow Light Snow
9:40 AM 33.8 °F 21.0 °F 32.0 °F 93% 30.00 in 0.5 mi NNW 25.3 mph 33.4 mph 0.03 in Fog , Snow Snow
9:53 AM 33.1 °F 20.9 °F 32.0 °F 96% 30.02 in 0.5 mi NW 21.9 mph 27.6 mph 0.04 in Fog , Snow Snow
10:53 AM 33.1 °F 20.9 °F 32.0 °F 96% 30.04 in 0.8 mi NW 21.9 mph 29.9 mph 0.03 in Snow Light Snow
10:58 AM 33.8 °F 21.9 °F 32.0 °F 93% 30.01 in 1.0 mi NW 21.9 mph 29.9 mph 0.00 in Snow Light Snow
11:34 AM 33.8 °F 21.9 °F 32.0 °F 93% 30.02 in 0.8 mi NW 21.9 mph 31.1 mph 0.04 in Snow Light Snow
11:53 AM 33.1 °F 20.3 °F 32.0 °F 96% 30.06 in 0.8 mi NW 24.2 mph 34.5 mph 0.05 in Snow Light Snow
12:53 PM 33.1 °F 20.6 °F 32.0 °F 96% 30.08 in 0.5 mi NW 23.0 mph 31.1 mph 0.02 in Fog , Snow Snow
1:53 PM 33.1 °F 20.1 °F 30.9 °F 92% 30.10 in 0.5 mi NW 25.3 mph 35.7 mph 0.02 in Fog , Snow Snow
2:53 PM 32.0 °F 18.6 °F 30.9 °F 96% 30.12 in 0.5 mi NW 25.3 mph 34.5 mph 0.01 in Fog , Snow Snow
3:25 PM 32.0 °F 18.1 °F 30.2 °F 93% 30.07 in 0.5 mi NW 27.6 mph 39.1 mph 0.01 in Fog , Snow Snow
3:53 PM 32.0 °F 17.9 °F 30.0 °F 92% 30.14 in 0.5 mi NW 28.8 mph 40.3 mph 0.01 in Fog , Snow Snow
4:13 PM 32.0 °F 18.1 °F 30.2 °F 93% 30.09 in 1.2 mi NW 27.6 mph 42.6 mph 0.00 in Snow Light Snow
4:53 PM 32.0 °F 18.1 °F 28.9 °F 88% 30.18 in 1.5 mi NW 27.6 mph 41.4 mph 0.00 in Snow Light Snow
5:03 PM 32.0 °F 18.4 °F 28.4 °F 87% 30.12 in 3.0 mi NW 26.5 mph 44.9 mph 0.00 in Snow Light Snow
5:42 PM 33.8 °F 20.3 °F 28.4 °F 81% 30.13 in 9.0 mi NW 28.8 mph 40.3 mph 0.00 in   Overcast
5:53 PM 33.1 °F 20.3 °F 28.0 °F 82% 30.21 in 10.0 mi NW 24.2 mph 39.1 mph 0.00 in   Overcast
6:53 PM 32.0 °F 18.6 °F 28.0 °F 85% 30.24 in 10.0 mi NW 25.3 mph 38.0 mph N/A   Overcast
7:53 PM 32.0 °F 18.6 °F 28.0 °F 85% 30.25 in 10.0 mi NW 25.3 mph 38.0 mph N/A   Overcast
8:53 PM 32.0 °F 18.4 °F 27.0 °F 82% 30.25 in 10.0 mi NW 26.5 mph 41.4 mph 0.00 in   Overcast
9:53 PM 32.0 °F 17.4 °F 27.0 °F 82% 30.23 in 10.0 mi NW 31.1 mph 43.7 mph N/A   Overcast
10:53 PM 30.9 °F 17.2 °F 27.0 °F 85% 30.22 in 10.0 mi NW 25.3 mph 38.0 mph N/A   Overcast
11:53 PM 30.9 °F 16.7 °F 26.1 °F 82% 30.20 in 10.0 mi NW 27.6 mph 40.3 mph N/A   Clear